This demonstration page uses our WeatherBlox Daily Observations layout. Learn more.

Left ArrowRight Arrow

38.83388, -104.82136

Hourly Observations for April 22, 2022

Temp ( °F °C ) Dew Point ( °F °C ) Humidity (%) Winds ( mph kmh ) Pressure ( in mb ) Visibility ( mi km ) Precip ( " mm )
12:58 am 00:58 Clear 66 18.7 15 -9.4 14 14 ESE 13 20 29.59 1002 10 16 0.00 0.00
1:58 am 01:58 Clear 65 18.4 16 -8.7 15 15 ENE 7 11 29.58 1002 10 16 0.00 0.00
2:58 am 02:58 Clear 59 14.9 21 -6.1 23 23 Calm 29.56 1001 10 16 0.00 0.00
3:58 am 03:58 Clear 60 15.4 17 -8.1 19 19 ESE 3 6 29.50 999 10 16 0.00 0.00
4:58 am 04:58 Clear 58 14.2 18 -7.8 21 21 Calm 29.50 999 10 16 0.00 0.00
5:58 am 05:58 Clear 56 13.6 17 -8.3 21 21 SSE 3 6 29.48 998 10 16 0.00 0.00
6:58 am 06:58 Sunny 64 17.8 15 -9.2 15 15 SE 7 11 29.52 1000 10 16 0.00 0.00
7:58 am 07:58 Sunny 66 18.8 20 -6.8 17 17 ENE 8 13 29.54 1001 10 16 0.00 0.00
8:58 am 08:58 Sunny 64 17.5 22 -5.7 20 20 NNE 3 6 29.56 1001 10 16 0.00 0.00
9:58 am 09:58 Sunny 68 19.9 20 -6.7 16 16 E 15 24 29.51 999 10 16 0.00 0.00
10:58 am 10:58 Sunny 71 21.7 12 -11.3 10 10 E 23 37 29.49 999 10 16 0.00 0.00
11:58 am 11:58 Sunny 74 23.3 9 -12.8 8 8 E 23 37 29.45 997 10 16 0.00 0.00
12:58 pm 12:58 Sunny 75 23.7 9 -12.6 8 8 E 24 39 29.40 996 10 16 0.00 0.00
1:58 pm 13:58 Sunny 76 24.7 11 -11.8 8 8 E 26 43 29.36 994 10 16 0.00 0.00
2:58 pm 14:58 Sunny 76 24.5 8 -13.6 7 7 E 31 50 29.33 993 10 16 0.00 0.00
3:40 pm 15:40 Sunny 75 24 3 -16 6 6 E 37 59 29.29 992 10 16 0.00 0.00
3:58 pm 15:58 Sunny 74 23.6 6 -14.3 7 7 E 32 52 29.26 991 10 16 0.00 0.00
4:58 pm 16:58 Partly Cloudy 72 22.2 7 -13.7 8 8 ESE 35 56 29.23 990 10 16 0.00 0.00
5:58 pm 17:58 Mostly Sunny 69 20.7 12 -10.9 11 11 E 24 39 29.18 988 10 16 0.00 0.00
6:52 pm 18:52 Mostly Cloudy 66 19 18 -8 15 15 SSE 20 31 29.18 988 10 16 0.00 0.00
6:58 pm 18:58 Cloudy 66 18.8 18 -7.6 16 16 ESE 17 28 29.18 988 9 14 0.00 0.00
7:03 pm 19:03 Cloudy 66 19 19 -7 17 17 ESE 15 24 29.18 988 9 14 0.00 0.00
7:58 pm 19:58 Cloudy with Haze 62 16.4 22 -5.4 22 22 SE 5 7 29.18 988 6 10 0.00 0.00
8:02 pm 20:02 Cloudy with Haze 61 16 23 -5 23 23 NW 17 28 29.20 989 6 10 0.00 0.00
8:03 pm 20:03 Cloudy with Haze 61 16 23 -5 23 23 W 16 26 29.20 989 6 10 0.00 0.00
8:06 pm 20:06 Cloudy with Haze 61 16 25 -4 25 25 W 13 20 29.21 989 6 10 0.00 0.00
8:22 pm 20:22 Cloudy 57 14 25 -4 29 29 WSW 14 22 29.19 989 8 13 0.00 0.00
8:58 pm 20:58 Mostly Cloudy 56 13.1 20 -6.5 25 25 WSW 28 44 29.20 989 10 16 0.00 0.00
9:40 pm 21:40 Mostly Cloudy 50 10 19 -7 30 30 SW 25 41 29.16 987 10 16 0.00 0.00
9:41 pm 21:41 Mostly Cloudy 50 10 19 -7 30 30 WSW 21 33 29.18 988 10 16 0.00 0.00
9:42 pm 21:42 Mostly Cloudy 50 10 19 -7 30 30 W 14 22 29.16 987 10 16 0.00 0.00
9:57 pm 21:57 Mostly Cloudy 52 11 14 -10 22 22 WNW 24 39 29.13 986 10 16 0.00 0.00
9:58 pm 21:58 Mostly Cloudy 51 10.7 15 -9.6 23 23 WNW 24 39 29.11 986 10 16 0.00 0.00
10:03 pm 22:03 Mostly Cloudy 52 11 14 -10 22 22 NNW 12 19 29.15 987 10 16 0.00 0.00
10:05 pm 22:05 Mostly Cloudy 52 11 14 -10 22 22 WNW 22 35 29.14 987 10 16 0.00 0.00
10:17 pm 22:17 Mostly Cloudy 50 10 18 -8 28 28 WSW 20 31 29.16 987 10 16 0.00 0.00
10:19 pm 22:19 Mostly Cloudy 50 10 16 -9 25 25 SW 21 33 29.16 987 10 16 0.00 0.00
10:21 pm 22:21 Mostly Cloudy 48 9 16 -9 27 27 W 22 35 29.15 987 10 16 0.00 0.00
10:27 pm 22:27 Mostly Cloudy 48 9 16 -9 27 27 WNW 20 31 29.13 986 10 16 0.00 0.00
10:31 pm 22:31 Mostly Cloudy 50 10 16 -9 25 25 W 17 28 29.14 987 10 16 0.00 0.00
10:33 pm 22:33 Mostly Cloudy 50 10 14 -10 24 24 W 16 26 29.12 986 10 16 0.00 0.00
10:47 pm 22:47 Mostly Cloudy 52 11 7 -14 16 16 WSW 12 19 29.13 987 10 16 0.00 0.00
10:51 pm 22:51 Mostly Cloudy 52 11 5 -15 15 15 W 15 24 29.11 986 10 16 0.00 0.00
10:53 pm 22:53 Mostly Cloudy 52 11 5 -15 15 15 W 13 20 29.14 987 10 16 0.00 0.00
10:58 pm 22:58 Mostly Cloudy 51 10.8 4 -15.7 14 14 WSW 8 13 29.14 987 10 16 0.00 0.00
10:59 pm 22:59 Cloudy 52 11 3 -16 13 13 WNW 21 33 29.13 987 10 16 0.00 0.00
11:00 pm 23:00 Cloudy 52 11 3 -16 13 13 NNW 15 24 29.10 986 10 16 0.00 0.00
11:15 pm 23:15 Mostly Cloudy 50 10 3 -16 14 14 E 16 26 29.14 987 10 16 0.00 0.00
11:16 pm 23:16 Mostly Cloudy 50 10 3 -16 14 14 SSE 18 30 29.16 988 10 16 0.00 0.00
11:17 pm 23:17 Mostly Cloudy 50 10 5 -15 16 16 SW 22 35 29.16 988 10 16 0.00 0.00
11:18 pm 23:18 Mostly Cloudy 50 10 5 -15 16 16 WNW 21 33 29.15 987 10 16 0.00 0.00
11:19 pm 23:19 Mostly Cloudy 50 10 7 -14 17 17 SSE 14 22 29.15 987 10 16 0.00 0.00
11:58 pm 23:58 Mostly Clear 45 7.1 17 -8.1 33 33 W 22 35 29.15 987 10 16 0.00 0.00
11:59 pm 23:59 Clear 45 7 18 -8 34 34 S 22 35 29.17 988 10 16 0.00 0.00

Powered by AerisWeather